COSMOS 2251 DEB, 38479

Orbit data source: Space-Track

COSMOS 2251 DEB, 38479 is space debris in LEO originally from a launch on Wed, 16 Jun 1993 UTC launched from the Plesetsk Missile And Space Complex (PKMTR). The debris from Iridium 33, an American commercial communications satellite, has been tracked extensively since its accidental collision with the defunct Russian satellite Cosmos 2251 in 2009. This event, occurring at high speed in low Earth orbit (LEO), generated thousands of pieces of space debris, significantly increasing the risk of further collisions. The Iridium 33 debris cloud has impacted space traffic management and orbital debris mitigation strategies, making it a subject of ongoing study in space situational awareness.

Loading next visibility...
Identifier
38479, 1993-036BTP
Orbit
LEO
Country
Flag of CISCIS
Related business
Manufacturer
Unknown
Mission
Spacecraft
Bus & Motor
Unknown
Mass
Unknown
Launch date (UTC)
1993-06-16 (33 years ago)
Launch vehicle
Unknown
Launch site
Plesetsk Missile And Space Complex (PKMTR)
Object type
Payload
Rocket body
Debris
Shape & HBR
Unknown shape, 0.1 m
Radar Cross Section
Small (<0.1 m²)

Expand to show TLE details & history
Last TLE update: 1 week ago

TLE from 1 week ago
0 COSMOS 2251 DEB
1 38479U 93036BTP 26056.74984006  .00001799  00000-0  56631-3 0  9999
2 38479  74.0058  45.6696 0080697 141.2757  33.2841 14.39265213657667
Epoch: 2026-02-25T17:59Z
TLE epoch observation values (Epoch: 2026-02-25T17:59:46.181Z)
Latitude
4.65495°
Longitude
158.78649°
Altitude
715.03 km
Speed
7.524 km/s
True Right ascension
14h 57m 21s
True Declination
4° 37' 37"
Sunlit
Object was in daylight at epoch
Visualization orbit readout
Latitude
Unknown
Longitude
Unknown
Altitude
Unknown
Speed
Unknown
Apparent Right ascension
Unknown
Apparent Declination
Unknown
Sunlit
N/A
Visualization observer readout
Local Sidereal Time
19:23:18
Azimuth
Unknown
Elevation
Unknown
Doppler factor
Unknown
Orbital elements
Apogee altitude
816.141 km
Perigee altitude
700.959 km
Semi-major axis
7,136.687 km
Eccentricity
0.00807
Inclination
74.0058°
RAAN
45.6696°
Arg. of periapsis
141.2757°
True anomaly
33.79588°
Mean anomaly
33.2841°
Eccentric anomaly
33.53956°
Mean motion
3.59996 °/min
Orbital period
100 mins
BSTAR
0.00056631

Documentation

Showing up to 5 results
|